Location: Marion Hill
(40.7303°N, 80.2959°W)
Time: 08:14:04
(UTC+00:00)

GPS 2-04 Rocket1 - Pass Details

Date: 29 October 2020
Orbit: 417 x 546 km, 35.6° (Epoch: 28 November)

Event Time Altitude Azimuth Distance (km) Brightness Sun altitude
Rises 23:31:22 0° 239° (WSW) 2,606 7.5 -14.0°
Reaches altitude 10° 23:33:44 10° 228° (SW) 1,743 6.2 -14.4°
Maximum altitude 23:37:17 31° 166° (SSE) 954 3.9 -15.1°
Enters shadow 23:39:04 22° 123° (ESE) 1,209 4.1 -15.4°
